Wetterdaten: Mittwoch, 23.09.2015
Datum Zeit Temp. A. Feuchte A. Luftdruck Regen Wind Richtung Richtung Sonnenschein ET UV Solar Taupunkt Windchill Windben Empfang
23.09.2015 00:00 13,6 C 78 % 1005,3 hPa 0,0 l/m 0,0 km/h (0 Bft) O-SO 115 0 min 0,000 mm 0,0 UV-I 0 W/m 9,8 C 13,6 C 0,0 km/h (0 Bft) 0,00 %
23.09.2015 00:05 13,6 C 77 % 1005,2 hPa 0,0 l/m 0,0 km/h (0 Bft) S-SW 213 0 min 0,000 mm 0,0 UV-I 0 W/m 9,6 C 13,6 C 0,0 km/h (0 Bft) 0,00 %
23.09.2015 00:10 13,6 C 78 % 1005,3 hPa 0,0 l/m 1,4 km/h (1 Bft) S-SO 162 0 min 0,000 mm 0,0 UV-I 0 W/m 9,8 C 13,6 C 4,0 km/h (1 Bft) 0,00 %
23.09.2015 00:15 13,7 C 77 % 1005,4 hPa 0,0 l/m 3,2 km/h (1 Bft) S-SW 193 0 min 0,000 mm 0,0 UV-I 0 W/m 9,7 C 13,7 C 4,0 km/h (1 Bft) 0,00 %
23.09.2015 00:20 13,7 C 77 % 1005,5 hPa 0,0 l/m 0,0 km/h (0 Bft) S 190 0 min 0,000 mm 0,0 UV-I 0 W/m 9,7 C 13,7 C 0,0 km/h (0 Bft) 0,00 %
23.09.2015 00:25 13,7 C 77 % 1005,3 hPa 0,0 l/m 1,4 km/h (1 Bft) SW 223 0 min 0,000 mm 0,0 UV-I 0 W/m 9,7 C 13,7 C 4,0 km/h (1 Bft) 0,00 %
23.09.2015 00:30 13,7 C 77 % 1005,3 hPa 0,0 l/m 0,4 km/h (0 Bft) S 177 0 min 0,000 mm 0,0 UV-I 0 W/m 9,7 C 13,7 C 4,0 km/h (1 Bft) 0,00 %
23.09.2015 00:35 13,7 C 76 % 1005,4 hPa 0,0 l/m 0,0 km/h (0 Bft) O 91 0 min 0,000 mm 0,0 UV-I 0 W/m 9,5 C 13,7 C 0,0 km/h (0 Bft) 0,00 %
23.09.2015 00:40 13,7 C 76 % 1005,4 hPa 0,0 l/m 0,0 km/h (0 Bft) SO 139 0 min 0,000 mm 0,0 UV-I 0 W/m 9,5 C 13,7 C 0,0 km/h (0 Bft) 0,00 %
23.09.2015 00:45 13,8 C 75 % 1005,4 hPa 0,0 l/m 1,4 km/h (1 Bft) S 174 0 min 0,000 mm 0,0 UV-I 0 W/m 9,4 C 13,8 C 4,0 km/h (1 Bft) 0,00 %
23.09.2015 00:50 13,8 C 75 % 1005,4 hPa 0,0 l/m 0,0 km/h (0 Bft) O-NO 69 0 min 0,000 mm 0,0 UV-I 0 W/m 9,4 C 13,8 C 0,0 km/h (0 Bft) 0,00 %
23.09.2015 00:55 13,9 C 75 % 1005,5 hPa 0,0 l/m 0,0 km/h (0 Bft) O-SO 121 0 min 0,000 mm 0,0 UV-I 0 W/m 9,5 C 13,9 C 0,0 km/h (0 Bft) 0,00 %
23.09.2015 01:00 13,9 C 73 % 1005,4 hPa 0,0 l/m 1,4 km/h (1 Bft) S-SW 198 0 min 0,000 mm 0,0 UV-I 0 W/m 9,1 C 13,9 C 4,0 km/h (1 Bft) 0,00 %
23.09.2015 01:05 13,9 C 74 % 1005,5 hPa 0,0 l/m 0,0 km/h (0 Bft) S 177 0 min 0,000 mm 0,0 UV-I 0 W/m 9,3 C 13,9 C 0,0 km/h (0 Bft) 0,00 %
23.09.2015 01:10 13,9 C 75 % 1005,5 hPa 0,0 l/m 0,0 km/h (0 Bft) W-SW 252 0 min 0,000 mm 0,0 UV-I 0 W/m 9,5 C 13,9 C 0,0 km/h (0 Bft) 0,00 %
23.09.2015 01:15 13,9 C 75 % 1005,6 hPa 0,0 l/m 0,0 km/h (0 Bft) S-SO 167 0 min 0,000 mm 0,0 UV-I 0 W/m 9,5 C 13,9 C 0,0 km/h (0 Bft) 0,00 %
23.09.2015 01:20 13,8 C 75 % 1005,5 hPa 0,0 l/m 0,0 km/h (0 Bft) S-SW 202 0 min 0,000 mm 0,0 UV-I 0 W/m 9,4 C 13,8 C 0,0 km/h (0 Bft) 0,00 %
23.09.2015 01:25 13,8 C 75 % 1005,5 hPa 0,0 l/m 0,0 km/h (0 Bft) O 84 0 min 0,000 mm 0,0 UV-I 0 W/m 9,4 C 13,8 C 0,0 km/h (0 Bft) 0,00 %
23.09.2015 01:30 13,8 C 75 % 1005,4 hPa 0,0 l/m 0,0 km/h (0 Bft) O-NO 72 0 min 0,000 mm 0,0 UV-I 0 W/m 9,4 C 13,8 C 0,0 km/h (0 Bft) 0,00 %
23.09.2015 01:35 13,7 C 75 % 1005,5 hPa 0,0 l/m 0,0 km/h (0 Bft) SO 129 0 min 0,000 mm 0,0 UV-I 0 W/m 9,3 C 13,7 C 0,0 km/h (0 Bft) 0,00 %
23.09.2015 01:40 13,7 C 76 % 1005,6 hPa 0,0 l/m 0,0 km/h (0 Bft) O 100 0 min 0,000 mm 0,0 UV-I 0 W/m 9,5 C 13,7 C 0,0 km/h (0 Bft) 0,00 %
23.09.2015 01:45 13,7 C 76 % 1005,6 hPa 0,0 l/m 0,0 km/h (0 Bft) SW 233 0 min 0,000 mm 0,0 UV-I 0 W/m 9,5 C 13,7 C 0,0 km/h (0 Bft) 0,00 %
23.09.2015 01:50 13,7 C 76 % 1005,3 hPa 0,0 l/m 0,0 km/h (0 Bft) S-SO 168 0 min 0,000 mm 0,0 UV-I 0 W/m 9,5 C 13,7 C 0,0 km/h (0 Bft) 0,00 %
23.09.2015 01:55 13,7 C 76 % 1005,6 hPa 0,0 l/m 0,0 km/h (0 Bft) SW 225 0 min 0,000 mm 0,0 UV-I 0 W/m 9,5 C 13,7 C 0,0 km/h (0 Bft) 0,00 %
23.09.2015 02:00 13,7 C 76 % 1005,3 hPa 0,0 l/m 0,0 km/h (0 Bft) SO 124 0 min 0,000 mm 0,0 UV-I 0 W/m 9,5 C 13,7 C 0,0 km/h (0 Bft) 0,00 %
23.09.2015 02:05 13,7 C 76 % 1005,3 hPa 0,0 l/m 0,4 km/h (0 Bft) S 174 0 min 0,000 mm 0,0 UV-I 0 W/m 9,5 C 13,7 C 4,0 km/h (1 Bft) 0,00 %
23.09.2015 02:10 13,7 C 76 % 1005,4 hPa 0,0 l/m 0,0 km/h (0 Bft) NO 52 0 min 0,000 mm 0,0 UV-I 0 W/m 9,5 C 13,7 C 0,0 km/h (0 Bft) 0,00 %
23.09.2015 02:15 13,7 C 76 % 1005,2 hPa 0,0 l/m 0,4 km/h (0 Bft) S-SO 159 0 min 0,000 mm 0,0 UV-I 0 W/m 9,5 C 13,7 C 4,0 km/h (1 Bft) 0,00 %
23.09.2015 02:20 13,7 C 77 % 1005,5 hPa 0,0 l/m 0,0 km/h (0 Bft) O-NO 67 0 min 0,000 mm 0,0 UV-I 0 W/m 9,7 C 13,7 C 0,0 km/h (0 Bft) 0,00 %
23.09.2015 02:25 13,6 C 76 % 1005,3 hPa 0,0 l/m 0,0 km/h (0 Bft) S-SW 205 0 min 0,000 mm 0,0 UV-I 0 W/m 9,4 C 13,6 C 0,0 km/h (0 Bft) 0,00 %
23.09.2015 02:30 13,6 C 76 % 1005,4 hPa 0,0 l/m 0,0 km/h (0 Bft) O-SO 105 0 min 0,000 mm 0,0 UV-I 0 W/m 9,4 C 13,6 C 0,0 km/h (0 Bft) 0,00 %
23.09.2015 02:35 13,6 C 77 % 1005,3 hPa 0,0 l/m 0,0 km/h (0 Bft) O 80 0 min 0,000 mm 0,0 UV-I 0 W/m 9,6 C 13,6 C 0,0 km/h (0 Bft) 0,00 %
23.09.2015 02:40 13,6 C 77 % 1005,3 hPa 0,0 l/m 0,0 km/h (0 Bft) O-NO 74 0 min 0,000 mm 0,0 UV-I 0 W/m 9,6 C 13,6 C 0,0 km/h (0 Bft) 0,00 %
23.09.2015 02:45 13,6 C 77 % 1005,2 hPa 0,0 l/m 0,0 km/h (0 Bft) S 170 0 min 0,000 mm 0,0 UV-I 0 W/m 9,6 C 13,6 C 0,0 km/h (0 Bft) 0,00 %
23.09.2015 02:50 13,5 C 76 % 1005,2 hPa 0,0 l/m 0,0 km/h (0 Bft) S-SO 148 0 min 0,000 mm 0,0 UV-I 0 W/m 9,4 C 13,5 C 0,0 km/h (0 Bft) 0,00 %
23.09.2015 02:55 13,5 C 76 % 1005,0 hPa 0,0 l/m 0,4 km/h (0 Bft) SW 220 0 min 0,000 mm 0,0 UV-I 0 W/m 9,4 C 13,5 C 4,0 km/h (1 Bft) 0,00 %
23.09.2015 03:00 13,5 C 76 % 1005,1 hPa 0,0 l/m 1,8 km/h (1 Bft) S-SW 213 0 min 0,000 mm 0,0 UV-I 0 W/m 9,4 C 13,5 C 4,0 km/h (1 Bft) 0,00 %
23.09.2015 03:05 13,5 C 76 % 1005,0 hPa 0,0 l/m 0,0 km/h (0 Bft) S 176 0 min 0,000 mm 0,0 UV-I 0 W/m 9,4 C 13,5 C 0,0 km/h (0 Bft) 0,00 %
23.09.2015 03:10 13,5 C 76 % 1005,1 hPa 0,0 l/m 0,0 km/h (0 Bft) W-NW 296 0 min 0,000 mm 0,0 UV-I 0 W/m 9,4 C 13,5 C 0,0 km/h (0 Bft) 0,00 %
23.09.2015 03:15 13,5 C 75 % 1005,2 hPa 0,0 l/m 0,0 km/h (0 Bft) SW 227 0 min 0,000 mm 0,0 UV-I 0 W/m 9,2 C 13,5 C 0,0 km/h (0 Bft) 0,00 %
23.09.2015 03:20 13,5 C 75 % 1004,9 hPa 0,0 l/m 0,7 km/h (0 Bft) S-SW 193 0 min 0,000 mm 0,0 UV-I 0 W/m 9,2 C 13,5 C 4,0 km/h (1 Bft) 0,00 %
23.09.2015 03:25 13,5 C 75 % 1005,0 hPa 0,0 l/m 0,0 km/h (0 Bft) S-SW 199 0 min 0,000 mm 0,0 UV-I 0 W/m 9,2 C 13,5 C 0,0 km/h (0 Bft) 0,00 %
23.09.2015 03:30 13,4 C 75 % 1005,2 hPa 0,0 l/m 0,0 km/h (0 Bft) O 90 0 min 0,000 mm 0,0 UV-I 0 W/m 9,1 C 13,4 C 0,0 km/h (0 Bft) 0,00 %
23.09.2015 03:35 13,4 C 75 % 1004,8 hPa 0,0 l/m 0,0 km/h (0 Bft) O-NO 73 0 min 0,000 mm 0,0 UV-I 0 W/m 9,1 C 13,4 C 0,0 km/h (0 Bft) 0,00 %
23.09.2015 03:40 13,4 C 76 % 1005,0 hPa 0,0 l/m 0,0 km/h (0 Bft) SO 141 0 min 0,000 mm 0,0 UV-I 0 W/m 9,3 C 13,4 C 0,0 km/h (0 Bft) 0,00 %
23.09.2015 03:45 13,3 C 76 % 1004,9 hPa 0,0 l/m 0,0 km/h (0 Bft) SO 133 0 min 0,000 mm 0,0 UV-I 0 W/m 9,2 C 13,3 C 0,0 km/h (0 Bft) 0,00 %
23.09.2015 03:50 13,3 C 76 % 1004,9 hPa 0,0 l/m 0,0 km/h (0 Bft) O 91 0 min 0,000 mm 0,0 UV-I 0 W/m 9,2 C 13,3 C 0,0 km/h (0 Bft) 0,00 %
23.09.2015 03:55 13,2 C 76 % 1004,8 hPa 0,0 l/m 0,0 km/h (0 Bft) O 91 0 min 0,000 mm 0,0 UV-I 0 W/m 9,1 C 13,2 C 0,0 km/h (0 Bft) 0,00 %
23.09.2015 04:00 13,1 C 76 % 1004,9 hPa 0,0 l/m 0,0 km/h (0 Bft) SO 143 0 min 0,000 mm 0,0 UV-I 0 W/m 9,0 C 13,1 C 0,0 km/h (0 Bft) 0,00 %
23.09.2015 04:05 13,1 C 76 % 1004,9 hPa 0,0 l/m 0,0 km/h (0 Bft) O-SO 105 0 min 0,000 mm 0,0 UV-I 0 W/m 9,0 C 13,1 C 0,0 km/h (0 Bft) 0,00 %
23.09.2015 04:10 13,1 C 76 % 1005,0 hPa 0,0 l/m 0,0 km/h (0 Bft) SO 127 0 min 0,000 mm 0,0 UV-I 0 W/m 9,0 C 13,1 C 0,0 km/h (0 Bft) 0,00 %
23.09.2015 04:15 13,1 C 76 % 1004,9 hPa 0,0 l/m 0,0 km/h (0 Bft) SW 225 0 min 0,000 mm 0,0 UV-I 0 W/m 9,0 C 13,1 C 0,0 km/h (0 Bft) 0,00 %
23.09.2015 04:20 13,1 C 77 % 1005,2 hPa 0,0 l/m 0,0 km/h (0 Bft) O-SO 114 0 min 0,000 mm 0,0 UV-I 0 W/m 9,2 C 13,1 C 0,0 km/h (0 Bft) 0,00 %
23.09.2015 04:25 13,0 C 77 % 1005,1 hPa 0,0 l/m 0,0 km/h (0 Bft) SO 132 0 min 0,000 mm 0,0 UV-I 0 W/m 9,1 C 13,0 C 0,0 km/h (0 Bft) 0,00 %
23.09.2015 04:30 13,0 C 77 % 1005,2 hPa 0,0 l/m 0,0 km/h (0 Bft) S 174 0 min 0,000 mm 0,0 UV-I 0 W/m 9,1 C 13,0 C 0,0 km/h (0 Bft) 0,00 %
23.09.2015 04:35 12,9 C 78 % 1005,2 hPa 0,0 l/m 0,0 km/h (0 Bft) S 179 0 min 0,000 mm 0,0 UV-I 0 W/m 9,2 C 12,9 C 0,0 km/h (0 Bft) 0,00 %
23.09.2015 04:40 12,9 C 78 % 1005,3 hPa 0,0 l/m 0,0 km/h (0 Bft) S-SW 208 0 min 0,000 mm 0,0 UV-I 0 W/m 9,2 C 12,9 C 0,0 km/h (0 Bft) 0,00 %
23.09.2015 04:45 12,9 C 78 % 1005,2 hPa 0,0 l/m 0,0 km/h (0 Bft) S-SW 199 0 min 0,000 mm 0,0 UV-I 0 W/m 9,2 C 12,9 C 0,0 km/h (0 Bft) 0,00 %
23.09.2015 04:50 12,9 C 78 % 1005,2 hPa 0,0 l/m 0,0 km/h (0 Bft) O-SO 117 0 min 0,000 mm 0,0 UV-I 0 W/m 9,2 C 12,9 C 0,0 km/h (0 Bft) 0,00 %
23.09.2015 04:55 12,9 C 78 % 1005,4 hPa 0,0 l/m 0,7 km/h (0 Bft) S-SW 199 0 min 0,000 mm 0,0 UV-I 0 W/m 9,2 C 12,9 C 4,0 km/h (1 Bft) 0,00 %
23.09.2015 05:00 12,9 C 78 % 1005,4 hPa 0,0 l/m 0,0 km/h (0 Bft) SO 133 0 min 0,000 mm 0,0 UV-I 0 W/m 9,2 C 12,9 C 0,0 km/h (0 Bft) 0,00 %
23.09.2015 05:05 12,9 C 78 % 1005,5 hPa 0,0 l/m 1,4 km/h (1 Bft) S-SW 192 0 min 0,000 mm 0,0 UV-I 0 W/m 9,2 C 12,9 C 4,0 km/h (1 Bft) 0,00 %
23.09.2015 05:10 12,8 C 78 % 1005,5 hPa 0,0 l/m 0,0 km/h (0 Bft) S 180 0 min 0,000 mm 0,0 UV-I 0 W/m 9,1 C 12,8 C 0,0 km/h (0 Bft) 0,00 %
23.09.2015 05:15 12,8 C 78 % 1005,7 hPa 0,0 l/m 0,0 km/h (0 Bft) O 98 0 min 0,000 mm 0,0 UV-I 0 W/m 9,1 C 12,8 C 0,0 km/h (0 Bft) 0,00 %
23.09.2015 05:20 12,8 C 78 % 1005,7 hPa 0,0 l/m 0,0 km/h (0 Bft) O 101 0 min 0,000 mm 0,0 UV-I 0 W/m 9,1 C 12,8 C 0,0 km/h (0 Bft) 0,00 %
23.09.2015 05:25 12,7 C 78 % 1005,8 hPa 0,0 l/m 0,0 km/h (0 Bft) N 356 0 min 0,000 mm 0,0 UV-I 0 W/m 9,0 C 12,7 C 0,0 km/h (0 Bft) 0,00 %
23.09.2015 05:30 12,7 C 78 % 1005,8 hPa 0,0 l/m 0,0 km/h (0 Bft) S-SW 202 0 min 0,000 mm 0,0 UV-I 0 W/m 9,0 C 12,7 C 0,0 km/h (0 Bft) 0,00 %
23.09.2015 05:35 12,7 C 78 % 1005,9 hPa 0,0 l/m 0,7 km/h (0 Bft) SW 235 0 min 0,000 mm 0,0 UV-I 0 W/m 9,0 C 12,7 C 4,0 km/h (1 Bft) 0,00 %
23.09.2015 05:40 12,7 C 77 % 1005,9 hPa 0,0 l/m 5,8 km/h (2 Bft) S-SW 202 0 min 0,000 mm 0,0 UV-I 0 W/m 8,8 C 12,7 C 7,9 km/h (2 Bft) 0,00 %
23.09.2015 05:45 12,8 C 77 % 1006,1 hPa 0,0 l/m 4,0 km/h (1 Bft) S-SO 152 0 min 0,000 mm 0,0 UV-I 0 W/m 8,9 C 12,8 C 7,9 km/h (2 Bft) 0,00 %
23.09.2015 05:50 12,8 C 79 % 1006,0 hPa 0,0 l/m 1,8 km/h (1 Bft) NW 313 0 min 0,000 mm 0,0 UV-I 0 W/m 9,2 C 12,8 C 4,0 km/h (1 Bft) 0,00 %
23.09.2015 05:55 12,9 C 81 % 1006,1 hPa 0,0 l/m 2,9 km/h (1 Bft) SW 214 0 min 0,000 mm 0,0 UV-I 0 W/m 9,7 C 12,9 C 4,0 km/h (1 Bft) 0,00 %
23.09.2015 06:00 12,8 C 82 % 1006,2 hPa 0,0 l/m 2,2 km/h (1 Bft) SW 230 0 min 0,000 mm 0,0 UV-I 0 W/m 9,8 C 12,8 C 4,0 km/h (1 Bft) 0,00 %
23.09.2015 06:05 12,6 C 82 % 1006,4 hPa 0,0 l/m 4,3 km/h (1 Bft) SW 227 0 min 0,000 mm 0,0 UV-I 0 W/m 9,6 C 12,6 C 7,9 km/h (2 Bft) 0,00 %
23.09.2015 06:10 12,6 C 82 % 1006,7 hPa 0,0 l/m 8,3 km/h (2 Bft) O-SO 118 0 min 0,000 mm 0,0 UV-I 0 W/m 9,6 C 11,4 C 15,8 km/h (3 Bft) 0,00 %
23.09.2015 06:15 12,6 C 83 % 1006,8 hPa 0,0 l/m 10,4 km/h (2 Bft) SW 223 0 min 0,000 mm 0,0 UV-I 0 W/m 9,8 C 10,3 C 15,8 km/h (3 Bft) 0,00 %
23.09.2015 06:20 12,5 C 82 % 1006,9 hPa 0,0 l/m 3,2 km/h (1 Bft) S 175 0 min 0,000 mm 0,0 UV-I 0 W/m 9,5 C 12,5 C 4,0 km/h (1 Bft) 0,00 %
23.09.2015 06:25 12,5 C 82 % 1007,2 hPa 0,0 l/m 6,8 km/h (2 Bft) S-SW 208 0 min 0,000 mm 0,0 UV-I 0 W/m 9,5 C 12,2 C 11,9 km/h (2 Bft) 0,00 %
23.09.2015 06:30 12,3 C 83 % 1007,4 hPa 0,0 l/m 14,8 km/h (3 Bft) W-NW 290 0 min 0,000 mm 0,0 UV-I 0 W/m 9,5 C 8,0 C 24,1 km/h (4 Bft) 0,00 %
23.09.2015 06:35 11,9 C 86 % 1007,7 hPa 0,0 l/m 14,0 km/h (3 Bft) W-SW 253 0 min 0,000 mm 0,0 UV-I 0 W/m 9,6 C 7,8 C 19,8 km/h (3 Bft) 0,00 %
23.09.2015 06:40 11,2 C 89 % 1007,5 hPa 0,0 l/m 1,8 km/h (1 Bft) S 186 0 min 0,000 mm 0,0 UV-I 0 W/m 9,5 C 11,2 C 4,0 km/h (1 Bft) 0,00 %
23.09.2015 06:45 10,9 C 90 % 1007,7 hPa 0,0 l/m 4,3 km/h (1 Bft) S 175 0 min 0,000 mm 0,0 UV-I 0 W/m 9,3 C 10,9 C 7,9 km/h (2 Bft) 0,00 %
23.09.2015 06:50 10,7 C 91 % 1007,9 hPa 0,0 l/m 5,8 km/h (2 Bft) SW 218 0 min 0,000 mm 0,0 UV-I 0 W/m 9,3 C 10,7 C 11,9 km/h (2 Bft) 0,00 %
23.09.2015 06:55 10,6 C 91 % 1008,0 hPa 0,0 l/m 5,4 km/h (1 Bft) SW 219 0 min 0,000 mm 0,0 UV-I 0 W/m 9,2 C 10,6 C 11,9 km/h (2 Bft) 0,00 %
23.09.2015 07:00 10,5 C 92 % 1008,1 hPa 0,0 l/m 1,4 km/h (1 Bft) O-NO 72 0 min 0,000 mm 0,0 UV-I 0 W/m 9,3 C 10,5 C 4,0 km/h (1 Bft) 0,00 %
23.09.2015 07:05 10,4 C 92 % 1008,1 hPa 0,0 l/m 9,0 km/h (2 Bft) S-SW 193 0 min 0,000 mm 0,0 UV-I 0 W/m 9,2 C 8,6 C 11,9 km/h (2 Bft) 0,00 %
23.09.2015 07:10 10,3 C 92 % 1008,2 hPa 0,3 l/m 9,4 km/h (2 Bft) S 189 0 min 0,000 mm 0,0 UV-I 0 W/m 9,1 C 8,3 C 15,8 km/h (3 Bft) 0,00 %
23.09.2015 07:15 10,3 C 92 % 1008,5 hPa 0,0 l/m 8,3 km/h (2 Bft) S-SW 201 0 min 0,000 mm 0,0 UV-I 0 W/m 9,1 C 9,0 C 11,9 km/h (2 Bft) 0,00 %
23.09.2015 07:20 10,2 C 91 % 1008,5 hPa 0,0 l/m 8,3 km/h (2 Bft) S 176 0 min 0,000 mm 0,0 UV-I 1 W/m 8,8 C 8,9 C 11,9 km/h (2 Bft) 0,00 %
23.09.2015 07:25 10,2 C 92 % 1008,4 hPa 0,0 l/m 4,7 km/h (1 Bft) SW 234 0 min 0,000 mm 0,0 UV-I 0 W/m 9,0 C 10,2 C 7,9 km/h (2 Bft) 0,00 %
23.09.2015 07:30 10,1 C 92 % 1008,6 hPa 0,0 l/m 2,2 km/h (1 Bft) SO 130 0 min 0,000 mm 0,0 UV-I 0 W/m 8,9 C 10,1 C 4,0 km/h (1 Bft) 0,00 %
23.09.2015 07:35 10,1 C 92 % 1008,8 hPa 0,0 l/m 14,4 km/h (3 Bft) W-SW 251 0 min 0,000 mm 0,0 UV-I 4 W/m 8,9 C 5,5 C 19,8 km/h (3 Bft) 0,00 %
23.09.2015 07:40 10,1 C 92 % 1008,9 hPa 0,0 l/m 14,0 km/h (3 Bft) S-SW 193 0 min 0,000 mm 0,0 UV-I 7 W/m 8,9 C 5,7 C 15,8 km/h (3 Bft) 0,00 %
23.09.2015 07:45 10,1 C 92 % 1008,9 hPa 0,0 l/m 9,0 km/h (2 Bft) SW 214 0 min 0,000 mm 0,0 UV-I 12 W/m 8,9 C 8,3 C 11,9 km/h (2 Bft) 0,00 %
23.09.2015 07:50 10,2 C 92 % 1008,9 hPa 0,0 l/m 4,0 km/h (1 Bft) S-SW 199 0 min 0,000 mm 0,0 UV-I 18 W/m 9,0 C 10,2 C 7,9 km/h (2 Bft) 0,00 %
23.09.2015 07:55 10,2 C 91 % 1009,1 hPa 0,0 l/m 1,8 km/h (1 Bft) O 79 0 min 0,000 mm 0,0 UV-I 24 W/m 8,8 C 10,2 C 4,0 km/h (1 Bft) 0,00 %
23.09.2015 08:00 10,2 C 91 % 1009,1 hPa 0,0 l/m 5,8 km/h (2 Bft) N-NW 342 0 min 0,000 mm 0,0 UV-I 26 W/m 8,8 C 10,2 C 7,9 km/h (2 Bft) 0,00 %
23.09.2015 08:05 10,2 C 90 % 1009,1 hPa 0,0 l/m 6,8 km/h (2 Bft) S 182 0 min 0,000 mm 0,0 UV-I 24 W/m 8,6 C 9,9 C 11,9 km/h (2 Bft) 0,00 %
23.09.2015 08:10 10,2 C 89 % 1009,3 hPa 0,0 l/m 10,4 km/h (2 Bft) S 188 0 min 0,000 mm 0,0 UV-I 23 W/m 8,5 C 7,6 C 19,8 km/h (3 Bft) 0,00 %
23.09.2015 08:15 10,2 C 88 % 1009,2 hPa 0,0 l/m 7,2 km/h (2 Bft) S-SW 211 0 min 0,000 mm 0,0 UV-I 24 W/m 8,3 C 9,6 C 15,8 km/h (3 Bft) 0,00 %
23.09.2015 08:20 10,2 C 87 % 1008,9 hPa 0,0 l/m 9,0 km/h (2 Bft) W-SW 250 0 min 0,000 mm 0,0 UV-I 24 W/m 8,1 C 8,4 C 15,8 km/h (3 Bft) 0,00 %
23.09.2015 08:25 10,2 C 86 % 1009,0 hPa 0,0 l/m 5,8 km/h (2 Bft) S-SW 209 0 min 0,000 mm 0,0 UV-I 27 W/m 8,0 C 10,2 C 7,9 km/h (2 Bft) 0,00 %
23.09.2015 08:30 10,2 C 86 % 1009,2 hPa 0,0 l/m 0,0 km/h (0 Bft) O-NO 67 0 min 0,000 mm 0,0 UV-I 28 W/m 8,0 C 10,2 C 0,0 km/h (0 Bft) 0,00 %
23.09.2015 08:35 10,2 C 85 % 1009,1 hPa 0,0 l/m 8,3 km/h (2 Bft) W-SW 250 0 min 0,000 mm 0,0 UV-I 38 W/m 7,8 C 8,9 C 11,9 km/h (2 Bft) 0,00 %
23.09.2015 08:40 10,2 C 85 % 1009,3 hPa 0,0 l/m 11,5 km/h (2 Bft) W 278 0 min 0,000 mm 0,0 UV-I 46 W/m 7,8 C 7,0 C 15,8 km/h (3 Bft) 0,00 %
23.09.2015 08:45 10,2 C 84 % 1009,2 hPa 0,0 l/m 10,8 km/h (2 Bft) W-SW 252 0 min 0,000 mm 0,0 UV-I 44 W/m 7,6 C 7,4 C 15,8 km/h (3 Bft) 0,00 %
23.09.2015 08:51 10,2 C 84 % 1009,4 hPa 0,0 l/m 1,8 km/h (1 Bft) SO 133 0 min 0,000 mm 0,0 UV-I 36 W/m 7,6 C 10,2 C 4,0 km/h (1 Bft) 0,00 %
23.09.2015 08:56 10,2 C 84 % 1009,3 hPa 0,0 l/m 4,7 km/h (1 Bft) S 183 0 min 0,000 mm 0,0 UV-I 31 W/m 7,6 C 10,2 C 7,9 km/h (2 Bft) 0,00 %
23.09.2015 09:01 10,1 C 84 % 1009,3 hPa 0,0 l/m 6,8 km/h (2 Bft) NW 312 0 min 0,000 mm 0,0 UV-I 38 W/m 7,5 C 9,8 C 7,9 km/h (2 Bft) 0,00 %
23.09.2015 09:06 10,1 C 84 % 1009,4 hPa 0,0 l/m 3,2 km/h (1 Bft) S 179 0 min 0,000 mm 0,0 UV-I 53 W/m 7,5 C 10,1 C 7,9 km/h (2 Bft) 0,00 %
23.09.2015 09:11 10,1 C 84 % 1009,5 hPa 0,0 l/m 4,3 km/h (1 Bft) S-SW 195 0 min 0,000 mm 0,0 UV-I 54 W/m 7,5 C 10,1 C 7,9 km/h (2 Bft) 0,00 %
23.09.2015 09:16 10,1 C 84 % 1009,5 hPa 0,0 l/m 1,4 km/h (1 Bft) S 173 0 min 0,000 mm 0,0 UV-I 60 W/m 7,5 C 10,1 C 4,0 km/h (1 Bft) 0,00 %
23.09.2015 09:21 10,1 C 85 % 1009,7 hPa 0,0 l/m 8,3 km/h (2 Bft) SW 229 0 min 0,000 mm 0,0 UV-I 55 W/m 7,7 C 8,8 C 11,9 km/h (2 Bft) 0,00 %
23.09.2015 09:26 10,1 C 86 % 1009,9 hPa 0,0 l/m 5,4 km/h (1 Bft) O-NO 76 0 min 0,000 mm 0,0 UV-I 47 W/m 7,9 C 10,1 C 11,9 km/h (2 Bft) 0,00 %
23.09.2015 09:31 10,0 C 87 % 1009,9 hPa 0,0 l/m 11,9 km/h (2 Bft) S-SW 201 0 min 0,000 mm 0,0 UV-I 52 W/m 7,9 C 6,6 C 15,8 km/h (3 Bft) 0,00 %
23.09.2015 09:36 10,0 C 88 % 1010,1 hPa 0,0 l/m 7,9 km/h (2 Bft) S 177 0 min 0,000 mm 0,0 UV-I 66 W/m 8,1 C 8,9 C 11,9 km/h (2 Bft) 0,00 %
23.09.2015 09:41 9,9 C 90 % 1010,1 hPa 0,0 l/m 1,8 km/h (1 Bft) SO 141 0 min 0,000 mm 0,0 UV-I 63 W/m 8,3 C 9,9 C 4,0 km/h (1 Bft) 0,00 %
23.09.2015 09:46 9,9 C 90 % 1010,2 hPa 0,0 l/m 4,7 km/h (1 Bft) S-SW 193 0 min 0,000 mm 0,0 UV-I 69 W/m 8,3 C 9,9 C 7,9 km/h (2 Bft) 0,00 %
23.09.2015 09:51 9,8 C 90 % 1010,3 hPa 0,0 l/m 2,2 km/h (1 Bft) NO 48 0 min 0,000 mm 0,0 UV-I 64 W/m 8,2 C 9,8 C 7,9 km/h (2 Bft) 0,00 %
23.09.2015 09:56 9,8 C 89 % 1010,4 hPa 0,0 l/m 4,0 km/h (1 Bft) S-SO 165 0 min 0,000 mm 0,0 UV-I 68 W/m 8,1 C 9,8 C 7,9 km/h (2 Bft) 0,00 %
23.09.2015 10:01 9,8 C 89 % 1010,5 hPa 0,0 l/m 12,2 km/h (2 Bft) SW 216 0 min 0,000 mm 1,0 UV-I 99 W/m 8,1 C 6,2 C 24,1 km/h (4 Bft) 0,00 %
23.09.2015 10:06 9,8 C 88 % 1010,4 hPa 0,0 l/m 5,4 km/h (1 Bft) SW 216 0 min 0,000 mm 1,0 UV-I 100 W/m 7,9 C 9,8 C 7,9 km/h (2 Bft) 0,00 %
23.09.2015 10:11 9,8 C 88 % 1010,4 hPa 0,0 l/m 0,4 km/h (0 Bft) SO 125 0 min 0,000 mm 1,0 UV-I 92 W/m 7,9 C 9,8 C 4,0 km/h (1 Bft) 0,00 %
23.09.2015 10:16 9,8 C 88 % 1010,5 hPa 0,0 l/m 1,8 km/h (1 Bft) O 83 0 min 0,000 mm 0,0 UV-I 93 W/m 7,9 C 9,8 C 4,0 km/h (1 Bft) 0,00 %
23.09.2015 10:21 9,8 C 88 % 1010,5 hPa 0,0 l/m 11,5 km/h (2 Bft) S-SW 202 0 min 0,000 mm 1,0 UV-I 114 W/m 7,9 C 6,5 C 15,8 km/h (3 Bft) 0,00 %
23.09.2015 10:26 9,8 C 88 % 1010,5 hPa 0,0 l/m 1,8 km/h (1 Bft) S 188 0 min 0,000 mm 1,0 UV-I 98 W/m 7,9 C 9,8 C 4,0 km/h (1 Bft) 0,00 %
23.09.2015 10:31 9,8 C 88 % 1010,7 hPa 0,0 l/m 13,0 km/h (3 Bft) SW 219 0 min 0,000 mm 0,0 UV-I 91 W/m 7,9 C 5,8 C 15,8 km/h (3 Bft) 0,00 %
23.09.2015 10:36 9,8 C 88 % 1010,7 hPa 0,0 l/m 5,8 km/h (2 Bft) S-SW 200 0 min 0,000 mm 0,0 UV-I 81 W/m 7,9 C 9,8 C 7,9 km/h (2 Bft) 0,00 %
23.09.2015 10:41 9,7 C 88 % 1010,7 hPa 0,0 l/m 8,3 km/h (2 Bft) S 185 0 min 0,000 mm 0,0 UV-I 88 W/m 7,8 C 8,3 C 11,9 km/h (2 Bft) 0,00 %
23.09.2015 10:46 9,7 C 88 % 1010,8 hPa 0,0 l/m 1,8 km/h (1 Bft) S-SW 211 0 min 0,000 mm 1,0 UV-I 103 W/m 7,8 C 9,7 C 4,0 km/h (1 Bft) 0,00 %
23.09.2015 10:51 9,7 C 89 % 1010,7 hPa 0,0 l/m 1,8 km/h (1 Bft) SO 130 0 min 0,000 mm 1,0 UV-I 118 W/m 8,0 C 9,7 C 4,0 km/h (1 Bft) 0,00 %
23.09.2015 10:56 9,8 C 89 % 1011,1 hPa 0,0 l/m 1,8 km/h (1 Bft) O-SO 117 0 min 0,000 mm 1,0 UV-I 113 W/m 8,1 C 9,8 C 4,0 km/h (1 Bft) 0,00 %
23.09.2015 11:01 9,9 C 89 % 1011,0 hPa 0,0 l/m 0,0 km/h (0 Bft) O-NO 71 0 min 0,000 mm 1,0 UV-I 96 W/m 8,2 C 9,9 C 0,0 km/h (0 Bft) 0,00 %
23.09.2015 11:06 9,9 C 89 % 1011,5 hPa 0,0 l/m 0,4 km/h (0 Bft) N-NW 334 0 min 0,000 mm 1,0 UV-I 93 W/m 8,2 C 9,9 C 4,0 km/h (1 Bft) 0,00 %
23.09.2015 11:11 9,9 C 88 % 1011,3 hPa 0,0 l/m 2,9 km/h (1 Bft) SW 220 0 min 0,000 mm 1,0 UV-I 103 W/m 8,0 C 9,9 C 4,0 km/h (1 Bft) 0,00 %
23.09.2015 11:16 9,9 C 88 % 1011,3 hPa 0,3 l/m 1,4 km/h (1 Bft) W-SW 242 0 min 0,000 mm 1,0 UV-I 103 W/m 8,0 C 9,9 C 4,0 km/h (1 Bft) 0,00 %
23.09.2015 11:21 9,8 C 88 % 1011,5 hPa 0,0 l/m 0,0 km/h (0 Bft) O-NO 63 0 min 0,000 mm 1,0 UV-I 109 W/m 7,9 C 9,8 C 0,0 km/h (0 Bft) 0,00 %
23.09.2015 11:26 9,8 C 89 % 1011,6 hPa 0,0 l/m 6,8 km/h (2 Bft) S 175 0 min 0,000 mm 1,0 UV-I 104 W/m 8,1 C 9,5 C 11,9 km/h (2 Bft) 0,00 %
23.09.2015 11:31 9,8 C 89 % 1011,5 hPa 0,0 l/m 0,4 km/h (0 Bft) N-NO 25 0 min 0,000 mm 1,0 UV-I 114 W/m 8,1 C 9,8 C 4,0 km/h (1 Bft) 0,00 %
23.09.2015 11:36 9,9 C 90 % 1011,5 hPa 0,3 l/m 0,7 km/h (0 Bft) W-NW 287 0 min 0,000 mm 1,0 UV-I 131 W/m 8,3 C 9,9 C 4,0 km/h (1 Bft) 0,00 %
23.09.2015 11:41 9,9 C 90 % 1012,2 hPa 0,0 l/m 0,4 km/h (0 Bft) SW 215 0 min 0,000 mm 1,0 UV-I 154 W/m 8,3 C 9,9 C 4,0 km/h (1 Bft) 0,00 %
23.09.2015 11:46 9,9 C 89 % 1011,9 hPa 0,0 l/m 0,0 km/h (0 Bft) S 188 0 min 0,000 mm 1,0 UV-I 166 W/m 8,2 C 9,9 C 0,0 km/h (0 Bft) 0,00 %
23.09.2015 11:51 10,0 C 90 % 1011,9 hPa 0,3 l/m 0,0 km/h (0 Bft) O-NO 70 0 min 0,000 mm 1,0 UV-I 181 W/m 8,4 C 10,0 C 0,0 km/h (0 Bft) 0,00 %
23.09.2015 11:56 10,1 C 90 % 1011,9 hPa 0,0 l/m 0,0 km/h (0 Bft) S-SO 148 0 min 0,000 mm 1,0 UV-I 218 W/m 8,5 C 10,1 C 0,0 km/h (0 Bft) 0,00 %
23.09.2015 12:01 10,3 C 90 % 1011,9 hPa 0,0 l/m 0,0 km/h (0 Bft) O 93 0 min 0,000 mm 1,0 UV-I 269 W/m 8,7 C 10,3 C 0,0 km/h (0 Bft) 0,00 %
23.09.2015 12:06 10,5 C 90 % 1011,7 hPa 0,0 l/m 0,4 km/h (0 Bft) SO 134 0 min 0,000 mm 1,0 UV-I 304 W/m 8,9 C 10,5 C 4,0 km/h (1 Bft) 0,00 %
23.09.2015 12:11 10,8 C 88 % 1011,9 hPa 0,0 l/m 0,7 km/h (0 Bft) SO 131 0 min 0,000 mm 1,0 UV-I 286 W/m 8,9 C 10,8 C 4,0 km/h (1 Bft) 0,00 %
23.09.2015 12:16 11,0 C 88 % 1012,0 hPa 0,0 l/m 0,7 km/h (0 Bft) S-SW 201 0 min 0,000 mm 1,0 UV-I 257 W/m 9,1 C 11,0 C 4,0 km/h (1 Bft) 0,00 %
23.09.2015 12:21 11,2 C 86 % 1011,9 hPa 0,0 l/m 0,7 km/h (0 Bft) S 183 0 min 0,000 mm 1,0 UV-I 240 W/m 8,9 C 11,2 C 4,0 km/h (1 Bft) 0,00 %
23.09.2015 12:26 11,3 C 86 % 1012,2 hPa 0,0 l/m 1,8 km/h (1 Bft) W-SW 256 0 min 0,000 mm 1,0 UV-I 200 W/m 9,0 C 11,3 C 4,0 km/h (1 Bft) 0,00 %
23.09.2015 12:31 11,3 C 85 % 1012,3 hPa 0,0 l/m 0,7 km/h (0 Bft) SW 226 0 min 0,000 mm 1,0 UV-I 202 W/m 8,9 C 11,3 C 4,0 km/h (1 Bft) 0,00 %
23.09.2015 12:36 11,3 C 84 % 1012,3 hPa 0,0 l/m 4,0 km/h (1 Bft) S 173 0 min 0,000 mm 1,0 UV-I 208 W/m 8,7 C 11,3 C 7,9 km/h (2 Bft) 0,00 %
23.09.2015 12:41 11,2 C 85 % 1012,3 hPa 0,0 l/m 4,3 km/h (1 Bft) S 191 0 min 0,000 mm 1,0 UV-I 248 W/m 8,8 C 11,2 C 7,9 km/h (2 Bft) 0,00 %
23.09.2015 12:46 11,1 C 83 % 1012,3 hPa 0,0 l/m 2,9 km/h (1 Bft) W-NW 298 0 min 0,000 mm 1,0 UV-I 220 W/m 8,3 C 11,1 C 4,0 km/h (1 Bft) 0,00 %
23.09.2015 12:51 11,1 C 82 % 1012,4 hPa 0,0 l/m 4,7 km/h (1 Bft) W-SW 252 0 min 0,000 mm 1,0 UV-I 189 W/m 8,1 C 11,1 C 7,9 km/h (2 Bft) 0,00 %
23.09.2015 12:56 11,1 C 82 % 1012,2 hPa 0,0 l/m 3,2 km/h (1 Bft) S 173 0 min 0,000 mm 1,0 UV-I 159 W/m 8,1 C 11,1 C 7,9 km/h (2 Bft) 0,00 %
23.09.2015 13:01 11,0 C 82 % 1012,5 hPa 0,0 l/m 0,0 km/h (0 Bft) S 172 0 min 0,000 mm 1,0 UV-I 115 W/m 8,0 C 11,0 C 0,0 km/h (0 Bft) 0,00 %
23.09.2015 13:06 11,0 C 83 % 1012,6 hPa 0,0 l/m 0,7 km/h (0 Bft) S 173 0 min 0,000 mm 1,0 UV-I 98 W/m 8,2 C 11,0 C 4,0 km/h (1 Bft) 0,00 %
23.09.2015 13:11 10,9 C 85 % 1012,7 hPa 0,0 l/m 0,0 km/h (0 Bft) O-NO 73 0 min 0,000 mm 0,0 UV-I 103 W/m 8,5 C 10,9 C 0,0 km/h (0 Bft) 0,00 %
23.09.2015 13:16 10,8 C 86 % 1012,7 hPa 0,3 l/m 4,7 km/h (1 Bft) S 183 0 min 0,000 mm 1,0 UV-I 151 W/m 8,6 C 10,8 C 7,9 km/h (2 Bft) 0,00 %
23.09.2015 13:21 10,6 C 87 % 1012,6 hPa 0,0 l/m 0,7 km/h (0 Bft) SW 216 0 min 0,000 mm 1,0 UV-I 170 W/m 8,5 C 10,6 C 4,0 km/h (1 Bft) 0,00 %
23.09.2015 13:26 10,5 C 88 % 1012,7 hPa 0,3 l/m 4,0 km/h (1 Bft) W-SW 251 0 min 0,000 mm 1,0 UV-I 163 W/m 8,6 C 10,5 C 4,0 km/h (1 Bft) 0,00 %
23.09.2015 13:31 10,5 C 89 % 1012,7 hPa 0,0 l/m 0,4 km/h (0 Bft) W-NW 295 0 min 0,000 mm 1,0 UV-I 173 W/m 8,8 C 10,5 C 4,0 km/h (1 Bft) 0,00 %
23.09.2015 13:36 10,5 C 89 % 1012,8 hPa 0,0 l/m 1,4 km/h (1 Bft) S-SW 208 0 min 0,000 mm 1,0 UV-I 171 W/m 8,8 C 10,5 C 4,0 km/h (1 Bft) 0,00 %
23.09.2015 13:41 10,5 C 90 % 1012,8 hPa 0,0 l/m 0,0 km/h (0 Bft) O-NO 74 0 min 0,000 mm 1,0 UV-I 152 W/m 8,9 C 10,5 C 0,0 km/h (0 Bft) 0,00 %
23.09.2015 13:46 10,4 C 89 % 1012,9 hPa 0,0 l/m 4,0 km/h (1 Bft) W-NW 288 0 min 0,000 mm 1,0 UV-I 100 W/m 8,7 C 10,4 C 7,9 km/h (2 Bft) 0,00 %
23.09.2015 13:51 10,2 C 89 % 1012,8 hPa 0,6 l/m 2,9 km/h (1 Bft) N-NW 333 0 min 0,000 mm 1,0 UV-I 114 W/m 8,5 C 10,2 C 7,9 km/h (2 Bft) 0,00 %
23.09.2015 13:56 10,0 C 90 % 1012,9 hPa 0,3 l/m 2,9 km/h (1 Bft) S 176 0 min 0,000 mm 1,0 UV-I 104 W/m 8,4 C 10,0 C 4,0 km/h (1 Bft) 0,00 %
23.09.2015 14:01 9,9 C 91 % 1012,9 hPa 0,3 l/m 0,0 km/h (0 Bft) S-SW 208 0 min 0,000 mm 1,0 UV-I 134 W/m 8,5 C 9,9 C 0,0 km/h (0 Bft) 0,00 %
23.09.2015 14:06 9,8 C 91 % 1013,0 hPa 0,3 l/m 0,7 km/h (0 Bft) S 180 0 min 0,000 mm 1,0 UV-I 168 W/m 8,4 C 9,8 C 4,0 km/h (1 Bft) 0,00 %
23.09.2015 14:11 9,9 C 92 % 1012,8 hPa 0,3 l/m 0,0 km/h (0 Bft) NO 53 0 min 0,000 mm 1,0 UV-I 210 W/m 8,7 C 9,9 C 0,0 km/h (0 Bft) 0,00 %
23.09.2015 14:16 10,1 C 92 % 1012,8 hPa 0,0 l/m 0,4 km/h (0 Bft) N-NW 345 0 min 0,000 mm 1,0 UV-I 220 W/m 8,9 C 10,1 C 4,0 km/h (1 Bft) 0,00 %
23.09.2015 14:21 10,3 C 93 % 1012,7 hPa 0,0 l/m 2,2 km/h (1 Bft) SW 223 0 min 0,000 mm 1,0 UV-I 241 W/m 9,2 C 10,3 C 4,0 km/h (1 Bft) 0,00 %
23.09.2015 14:26 10,4 C 93 % 1012,7 hPa 0,0 l/m 1,4 km/h (1 Bft) SW 228 0 min 0,000 mm 1,0 UV-I 275 W/m 9,3 C 10,4 C 4,0 km/h (1 Bft) 0,00 %
23.09.2015 14:31 10,6 C 93 % 1012,6 hPa 0,3 l/m 0,0 km/h (0 Bft) O-NO 65 0 min 0,000 mm 1,0 UV-I 230 W/m 9,5 C 10,6 C 0,0 km/h (0 Bft) 0,00 %
23.09.2015 14:36 10,7 C 93 % 1012,8 hPa 0,0 l/m 2,9 km/h (1 Bft) S 173 0 min 0,000 mm 1,0 UV-I 232 W/m 9,6 C 10,7 C 4,0 km/h (1 Bft) 0,00 %
23.09.2015 14:41 10,8 C 92 % 1012,9 hPa 0,0 l/m 4,3 km/h (1 Bft) W-SW 251 0 min 0,000 mm 1,0 UV-I 209 W/m 9,6 C 10,8 C 7,9 km/h (2 Bft) 0,00 %
23.09.2015 14:46 10,9 C 91 % 1012,9 hPa 0,0 l/m 2,2 km/h (1 Bft) S 185 0 min 0,000 mm 1,0 UV-I 208 W/m 9,5 C 10,9 C 4,0 km/h (1 Bft) 0,00 %
23.09.2015 14:51 10,9 C 91 % 1013,0 hPa 0,0 l/m 0,0 km/h (0 Bft) N-NO 30 0 min 0,000 mm 1,0 UV-I 275 W/m 9,5 C 10,9 C 0,0 km/h (0 Bft) 0,00 %
23.09.2015 14:56 11,0 C 91 % 1012,8 hPa 0,0 l/m 2,2 km/h (1 Bft) S-SW 203 0 min 0,000 mm 1,0 UV-I 286 W/m 9,6 C 11,0 C 4,0 km/h (1 Bft) 0,00 %
23.09.2015 15:01 11,1 C 90 % 1012,9 hPa 0,0 l/m 0,7 km/h (0 Bft) SW 219 0 min 0,000 mm 1,0 UV-I 267 W/m 9,5 C 11,1 C 4,0 km/h (1 Bft) 0,00 %
23.09.2015 15:06 11,2 C 89 % 1012,9 hPa 0,0 l/m 0,7 km/h (0 Bft) O-SO 102 0 min 0,000 mm 1,0 UV-I 239 W/m 9,5 C 11,2 C 4,0 km/h (1 Bft) 0,00 %
23.09.2015 15:11 11,2 C 89 % 1013,1 hPa 0,0 l/m 0,4 km/h (0 Bft) O-SO 112 0 min 0,000 mm 1,0 UV-I 229 W/m 9,5 C 11,2 C 4,0 km/h (1 Bft) 0,00 %
23.09.2015 15:16 11,3 C 88 % 1012,9 hPa 0,0 l/m 6,5 km/h (2 Bft) S 181 0 min 0,000 mm 1,0 UV-I 227 W/m 9,4 C 11,3 C 11,9 km/h (2 Bft) 0,00 %
23.09.2015 15:21 11,2 C 87 % 1012,9 hPa 0,0 l/m 0,7 km/h (0 Bft) S 175 0 min 0,000 mm 1,0 UV-I 222 W/m 9,1 C 11,2 C 4,0 km/h (1 Bft) 0,00 %
23.09.2015 15:26 11,2 C 87 % 1013,0 hPa 0,0 l/m 0,7 km/h (0 Bft) S 176 0 min 0,000 mm 1,0 UV-I 172 W/m 9,1 C 11,2 C 4,0 km/h (1 Bft) 0,00 %
23.09.2015 15:31 11,1 C 87 % 1013,2 hPa 0,0 l/m 0,0 km/h (0 Bft) S 178 0 min 0,000 mm 1,0 UV-I 184 W/m 9,0 C 11,1 C 0,0 km/h (0 Bft) 0,00 %
23.09.2015 15:36 11,1 C 88 % 1013,0 hPa 0,0 l/m 4,3 km/h (1 Bft) S-SW 194 0 min 0,000 mm 1,0 UV-I 213 W/m 9,2 C 11,1 C 7,9 km/h (2 Bft) 0,00 %
23.09.2015 15:41 11,1 C 87 % 1013,1 hPa 0,0 l/m 0,0 km/h (0 Bft) O-NO 63 0 min 0,000 mm 1,0 UV-I 175 W/m 9,0 C 11,1 C 0,0 km/h (0 Bft) 0,00 %
23.09.2015 15:46 11,1 C 87 % 1013,2 hPa 0,0 l/m 1,4 km/h (1 Bft) O 88 0 min 0,000 mm 1,0 UV-I 178 W/m 9,0 C 11,1 C 4,0 km/h (1 Bft) 0,00 %
23.09.2015 15:51 11,0 C 87 % 1013,2 hPa 0,0 l/m 2,9 km/h (1 Bft) SW 234 0 min 0,000 mm 1,0 UV-I 178 W/m 8,9 C 11,0 C 4,0 km/h (1 Bft) 0,00 %
23.09.2015 15:56 11,0 C 87 % 1013,2 hPa 0,0 l/m 1,8 km/h (1 Bft) W-SW 251 0 min 0,000 mm 1,0 UV-I 155 W/m 8,9 C 11,0 C 4,0 km/h (1 Bft) 0,00 %
23.09.2015 16:01 10,9 C 88 % 1013,3 hPa 0,0 l/m 2,2 km/h (1 Bft) O-SO 110 0 min 0,000 mm 1,0 UV-I 134 W/m 9,0 C 10,9 C 7,9 km/h (2 Bft) 0,00 %
23.09.2015 16:06 10,9 C 88 % 1013,5 hPa 0,0 l/m 0,0 km/h (0 Bft) O-SO 104 0 min 0,000 mm 1,0 UV-I 119 W/m 9,0 C 10,9 C 0,0 km/h (0 Bft) 0,00 %
23.09.2015 16:11 10,9 C 89 % 1013,2 hPa 0,0 l/m 0,0 km/h (0 Bft) S 176 0 min 0,000 mm 1,0 UV-I 119 W/m 9,2 C 10,9 C 0,0 km/h (0 Bft) 0,00 %
23.09.2015 16:16 10,8 C 89 % 1013,4 hPa 0,0 l/m 0,4 km/h (0 Bft) SO 139 0 min 0,000 mm 1,0 UV-I 93 W/m 9,1 C 10,8 C 4,0 km/h (1 Bft) 0,00 %
23.09.2015 16:21 10,8 C 88 % 1013,6 hPa 0,0 l/m 0,0 km/h (0 Bft) SO 145 0 min 0,000 mm 0,0 UV-I 71 W/m 8,9 C 10,8 C 0,0 km/h (0 Bft) 0,00 %
23.09.2015 16:26 10,7 C 89 % 1013,6 hPa 0,0 l/m 0,4 km/h (0 Bft) SO 137 0 min 0,000 mm 0,0 UV-I 58 W/m 9,0 C 10,7 C 4,0 km/h (1 Bft) 0,00 %
23.09.2015 16:31 10,6 C 89 % 1013,8 hPa 0,3 l/m 3,2 km/h (1 Bft) O-SO 119 0 min 0,000 mm 0,0 UV-I 66 W/m 8,9 C 10,6 C 4,0 km/h (1 Bft) 0,00 %
23.09.2015 16:36 10,4 C 89 % 1013,7 hPa 0,0 l/m 4,3 km/h (1 Bft) S 182 0 min 0,000 mm 0,0 UV-I 47 W/m 8,7 C 10,4 C 7,9 km/h (2 Bft) 0,00 %
23.09.2015 16:41 10,3 C 89 % 1013,9 hPa 0,3 l/m 0,0 km/h (0 Bft) O 86 0 min 0,000 mm 0,0 UV-I 59 W/m 8,6 C 10,3 C 0,0 km/h (0 Bft) 0,00 %
23.09.2015 16:46 10,2 C 90 % 1014,0 hPa 0,0 l/m 0,0 km/h (0 Bft) S 176 0 min 0,000 mm 0,0 UV-I 87 W/m 8,6 C 10,2 C 0,0 km/h (0 Bft) 0,00 %
23.09.2015 16:51 10,2 C 90 % 1013,8 hPa 0,0 l/m 0,0 km/h (0 Bft) O 79 0 min 0,000 mm 1,0 UV-I 94 W/m 8,6 C 10,2 C 0,0 km/h (0 Bft) 0,00 %
23.09.2015 16:56 10,1 C 91 % 1013,9 hPa 0,0 l/m 0,7 km/h (0 Bft) SW 225 0 min 0,000 mm 1,0 UV-I 90 W/m 8,7 C 10,1 C 4,0 km/h (1 Bft) 0,00 %
23.09.2015 17:01 10,1 C 91 % 1014,0 hPa 0,3 l/m 0,7 km/h (0 Bft) S-SW 207 0 min 0,000 mm 0,0 UV-I 88 W/m 8,7 C 10,1 C 4,0 km/h (1 Bft) 0,00 %
23.09.2015 17:06 10,1 C 91 % 1014,2 hPa 0,0 l/m 0,7 km/h (0 Bft) SO 129 0 min 0,000 mm 0,0 UV-I 88 W/m 8,7 C 10,1 C 4,0 km/h (1 Bft) 0,00 %
23.09.2015 17:11 10,0 C 91 % 1014,2 hPa 0,0 l/m 1,4 km/h (1 Bft) S 173 0 min 0,000 mm 0,0 UV-I 80 W/m 8,6 C 10,0 C 4,0 km/h (1 Bft) 0,00 %
23.09.2015 17:16 10,0 C 91 % 1014,2 hPa 0,0 l/m 2,2 km/h (1 Bft) S-SW 201 0 min 0,000 mm 0,0 UV-I 72 W/m 8,6 C 10,0 C 4,0 km/h (1 Bft) 0,00 %
23.09.2015 17:21 9,9 C 93 % 1014,4 hPa 0,0 l/m 2,9 km/h (1 Bft) S-SW 195 0 min 0,000 mm 0,0 UV-I 64 W/m 8,8 C 9,9 C 7,9 km/h (2 Bft) 0,00 %
23.09.2015 17:26 9,8 C 92 % 1014,6 hPa 0,0 l/m 7,9 km/h (2 Bft) S 174 0 min 0,000 mm 0,0 UV-I 55 W/m 8,6 C 8,7 C 11,9 km/h (2 Bft) 0,00 %
23.09.2015 17:31 9,8 C 92 % 1014,7 hPa 0,0 l/m 4,7 km/h (1 Bft) S 183 0 min 0,000 mm 0,0 UV-I 57 W/m 8,6 C 9,8 C 7,9 km/h (2 Bft) 0,00 %
23.09.2015 17:36 9,7 C 92 % 1014,5 hPa 0,0 l/m 0,7 km/h (0 Bft) S-SW 197 0 min 0,000 mm 0,0 UV-I 50 W/m 8,5 C 9,7 C 4,0 km/h (1 Bft) 0,00 %
23.09.2015 17:41 9,6 C 92 % 1014,6 hPa 0,0 l/m 4,3 km/h (1 Bft) S-SW 209 0 min 0,000 mm 0,0 UV-I 42 W/m 8,4 C 9,6 C 7,9 km/h (2 Bft) 0,00 %
23.09.2015 17:46 9,6 C 92 % 1014,8 hPa 0,0 l/m 0,4 km/h (0 Bft) S-SO 147 0 min 0,000 mm 0,0 UV-I 40 W/m 8,4 C 9,6 C 4,0 km/h (1 Bft) 0,00 %
23.09.2015 17:51 9,5 C 91 % 1014,7 hPa 0,0 l/m 0,0 km/h (0 Bft) S-SO 152 0 min 0,000 mm 0,0 UV-I 32 W/m 8,1 C 9,5 C 0,0 km/h (0 Bft) 0,00 %
23.09.2015 17:56 9,5 C 91 % 1014,8 hPa 0,0 l/m 2,9 km/h (1 Bft) SW 224 0 min 0,000 mm 0,0 UV-I 25 W/m 8,1 C 9,5 C 7,9 km/h (2 Bft) 0,00 %
23.09.2015 18:01 9,5 C 91 % 1015,0 hPa 0,0 l/m 1,4 km/h (1 Bft) S-SW 194 0 min 0,000 mm 0,0 UV-I 21 W/m 8,1 C 9,5 C 4,0 km/h (1 Bft) 0,00 %
23.09.2015 18:06 9,5 C 91 % 1014,9 hPa 0,0 l/m 4,3 km/h (1 Bft) S 187 0 min 0,000 mm 0,0 UV-I 17 W/m 8,1 C 9,5 C 7,9 km/h (2 Bft) 0,00 %
23.09.2015 18:11 9,4 C 92 % 1015,1 hPa 0,0 l/m 4,7 km/h (1 Bft) S-SW 211 0 min 0,000 mm 0,0 UV-I 11 W/m 8,2 C 9,4 C 11,9 km/h (2 Bft) 0,00 %
23.09.2015 18:16 9,4 C 92 % 1015,1 hPa 0,0 l/m 0,7 km/h (0 Bft) N-NO 29 0 min 0,000 mm 0,0 UV-I 10 W/m 8,2 C 9,4 C 4,0 km/h (1 Bft) 0,00 %
23.09.2015 18:21 9,4 C 92 % 1014,6 hPa 0,0 l/m 0,0 km/h (0 Bft) O-SO 114 0 min 0,000 mm 0,0 UV-I 6 W/m 8,2 C 9,4 C 0,0 km/h (0 Bft) 0,00 %
23.09.2015 18:26 9,3 C 92 % 1015,2 hPa 0,0 l/m 0,0 km/h (0 Bft) O 87 0 min 0,000 mm 0,0 UV-I 3 W/m 8,1 C 9,3 C 0,0 km/h (0 Bft) 0,00 %
23.09.2015 18:31 9,3 C 92 % 1015,0 hPa 0,3 l/m 0,0 km/h (0 Bft) O 87 0 min 0,000 mm 0,0 UV-I 1 W/m 8,1 C 9,3 C 0,0 km/h (0 Bft) 0,00 %
23.09.2015 18:36 9,2 C 93 % 1014,9 hPa 0,0 l/m 0,0 km/h (0 Bft) S 180 0 min 0,000 mm 0,0 UV-I 0 W/m 8,1 C 9,2 C 0,0 km/h (0 Bft) 0,00 %
23.09.2015 18:41 9,2 C 93 % 1015,1 hPa 0,0 l/m 0,0 km/h (0 Bft) O 83 0 min 0,000 mm 0,0 UV-I 0 W/m 8,1 C 9,2 C 0,0 km/h (0 Bft) 0,00 %
23.09.2015 18:46 9,1 C 93 % 1015,2 hPa 0,0 l/m 3,2 km/h (1 Bft) SO 134 0 min 0,000 mm 0,0 UV-I 0 W/m 8,0 C 9,1 C 4,0 km/h (1 Bft) 0,00 %
23.09.2015 18:51 9,0 C 93 % 1015,3 hPa 0,0 l/m 0,7 km/h (0 Bft) SO 137 0 min 0,000 mm 0,0 UV-I 0 W/m 7,9 C 9,0 C 4,0 km/h (1 Bft) 0,00 %
23.09.2015 18:56 9,0 C 93 % 1015,6 hPa 0,0 l/m 1,4 km/h (1 Bft) S 183 0 min 0,000 mm 0,0 UV-I 0 W/m 7,9 C 9,0 C 4,0 km/h (1 Bft) 0,00 %
23.09.2015 19:01 8,9 C 94 % 1015,2 hPa 0,0 l/m 0,7 km/h (0 Bft) S-SO 152 0 min 0,000 mm 0,0 UV-I 0 W/m 8,0 C 8,9 C 4,0 km/h (1 Bft) 0,00 %
23.09.2015 19:06 8,9 C 94 % 1015,5 hPa 0,0 l/m 1,4 km/h (1 Bft) SW 225 0 min 0,000 mm 0,0 UV-I 0 W/m 8,0 C 8,9 C 4,0 km/h (1 Bft) 0,00 %
23.09.2015 19:11 8,8 C 94 % 1015,4 hPa 0,0 l/m 0,7 km/h (0 Bft) S 183 0 min 0,000 mm 0,0 UV-I 0 W/m 7,9 C 8,8 C 4,0 km/h (1 Bft) 0,00 %
23.09.2015 19:16 8,8 C 94 % 1015,6 hPa 0,0 l/m 2,2 km/h (1 Bft) S 190 0 min 0,000 mm 0,0 UV-I 0 W/m 7,9 C 8,8 C 4,0 km/h (1 Bft) 0,00 %
23.09.2015 19:21 8,7 C 94 % 1015,8 hPa 0,3 l/m 1,8 km/h (1 Bft) S 189 0 min 0,000 mm 0,0 UV-I 0 W/m 7,8 C 8,7 C 4,0 km/h (1 Bft) 0,00 %
23.09.2015 19:26 8,7 C 94 % 1015,7 hPa 0,0 l/m 1,4 km/h (1 Bft) O 100 0 min 0,000 mm 0,0 UV-I 0 W/m 7,8 C 8,7 C 4,0 km/h (1 Bft) 0,00 %
23.09.2015 19:31 8,7 C 94 % 1015,9 hPa 0,0 l/m 0,7 km/h (0 Bft) O-NO 72 0 min 0,000 mm 0,0 UV-I 0 W/m 7,8 C 8,7 C 4,0 km/h (1 Bft) 0,00 %
23.09.2015 19:36 8,6 C 94 % 1016,0 hPa 0,0 l/m 1,4 km/h (1 Bft) S 178 0 min 0,000 mm 0,0 UV-I 0 W/m 7,7 C 8,6 C 4,0 km/h (1 Bft) 0,00 %
23.09.2015 19:41 8,6 C 95 % 1016,0 hPa 0,3 l/m 6,8 km/h (2 Bft) SW 214 0 min 0,000 mm 0,0 UV-I 0 W/m 7,8 C 8,3 C 7,9 km/h (2 Bft) 0,00 %
23.09.2015 19:46 8,5 C 95 % 1015,9 hPa 0,0 l/m 0,0 km/h (0 Bft) S 172 0 min 0,000 mm 0,0 UV-I 0 W/m 7,7 C 8,5 C 0,0 km/h (0 Bft) 0,00 %
23.09.2015 19:51 8,5 C 96 % 1016,2 hPa 0,3 l/m 1,8 km/h (1 Bft) W-SW 256 0 min 0,000 mm 0,0 UV-I 0 W/m 7,9 C 8,5 C 4,0 km/h (1 Bft) 0,00 %
23.09.2015 19:56 8,5 C 98 % 1016,4 hPa 0,0 l/m 4,0 km/h (1 Bft) S 191 0 min 0,000 mm 0,0 UV-I 0 W/m 8,2 C 8,5 C 7,9 km/h (2 Bft) 0,00 %
23.09.2015 20:01 8,4 C 99 % 1016,5 hPa 0,0 l/m 0,0 km/h (0 Bft) SW 220 0 min 0,000 mm 0,0 UV-I 0 W/m 8,3 C 8,4 C 0,0 km/h (0 Bft) 0,00 %
23.09.2015 20:06 8,3 C 99 % 1016,5 hPa 0,0 l/m 1,8 km/h (1 Bft) S 178 0 min 0,000 mm 0,0 UV-I 0 W/m 8,2 C 8,3 C 4,0 km/h (1 Bft) 0,00 %
23.09.2015 20:11 8,3 C 99 % 1016,8 hPa 0,0 l/m 3,2 km/h (1 Bft) S 173 0 min 0,000 mm 0,0 UV-I 0 W/m 8,2 C 8,3 C 7,9 km/h (2 Bft) 0,00 %
23.09.2015 20:16 8,2 C 99 % 1016,6 hPa 0,0 l/m 0,0 km/h (0 Bft) O 79 0 min 0,000 mm 0,0 UV-I 0 W/m 8,1 C 8,2 C 0,0 km/h (0 Bft) 0,00 %
23.09.2015 20:21 8,2 C 99 % 1017,0 hPa 0,0 l/m 0,0 km/h (0 Bft) O 83 0 min 0,000 mm 0,0 UV-I 0 W/m 8,1 C 8,2 C 0,0 km/h (0 Bft) 0,00 %
23.09.2015 20:26 8,2 C 99 % 1016,9 hPa 0,0 l/m 1,4 km/h (1 Bft) S-SW 200 0 min 0,000 mm 0,0 UV-I 0 W/m 8,1 C 8,2 C 4,0 km/h (1 Bft) 0,00 %
23.09.2015 20:31 8,2 C 99 % 1017,0 hPa 0,0 l/m 2,9 km/h (1 Bft) S-SW 195 0 min 0,000 mm 0,0 UV-I 0 W/m 8,1 C 8,2 C 4,0 km/h (1 Bft) 0,00 %
23.09.2015 20:36 8,1 C 99 % 1017,1 hPa 0,0 l/m 1,4 km/h (1 Bft) S-SW 212 0 min 0,000 mm 0,0 UV-I 0 W/m 8,0 C 8,1 C 4,0 km/h (1 Bft) 0,00 %
23.09.2015 20:41 8,1 C 99 % 1017,2 hPa 0,3 l/m 0,7 km/h (0 Bft) S 186 0 min 0,000 mm 0,0 UV-I 0 W/m 8,0 C 8,1 C 4,0 km/h (1 Bft) 0,00 %
23.09.2015 20:46 8,1 C 99 % 1016,5 hPa 0,0 l/m 0,0 km/h (0 Bft) S 186 0 min 0,000 mm 0,0 UV-I 0 W/m 8,0 C 8,1 C 0,0 km/h (0 Bft) 0,00 %
23.09.2015 20:51 8,0 C 99 % 1017,2 hPa 0,0 l/m 0,0 km/h (0 Bft) S 175 0 min 0,000 mm 0,0 UV-I 0 W/m 7,9 C 8,0 C 0,0 km/h (0 Bft) 0,00 %
23.09.2015 20:56 8,0 C 99 % 1017,2 hPa 0,0 l/m 0,0 km/h (0 Bft) O 80 0 min 0,000 mm 0,0 UV-I 0 W/m 7,9 C 8,0 C 0,0 km/h (0 Bft) 0,00 %
23.09.2015 21:01 8,0 C 99 % 1017,2 hPa 0,0 l/m 0,0 km/h (0 Bft) O-SO 105 0 min 0,000 mm 0,0 UV-I 0 W/m 7,9 C 8,0 C 0,0 km/h (0 Bft) 0,00 %
23.09.2015 21:06 8,0 C 99 % 1017,3 hPa 0,0 l/m 0,0 km/h (0 Bft) O 82 0 min 0,000 mm 0,0 UV-I 0 W/m 7,9 C 8,0 C 0,0 km/h (0 Bft) 0,00 %
23.09.2015 21:11 8,0 C 99 % 1017,3 hPa 0,0 l/m 0,4 km/h (0 Bft) S-SW 208 0 min 0,000 mm 0,0 UV-I 0 W/m 7,9 C 8,0 C 4,0 km/h (1 Bft) 0,00 %
23.09.2015 21:16 8,0 C 99 % 1017,4 hPa 0,0 l/m 3,2 km/h (1 Bft) S-SW 192 0 min 0,000 mm 0,0 UV-I 0 W/m 7,9 C 8,0 C 4,0 km/h (1 Bft) 0,00 %
23.09.2015 21:21 8,0 C 99 % 1017,7 hPa 0,0 l/m 0,0 km/h (0 Bft) S 172 0 min 0,000 mm 0,0 UV-I 0 W/m 7,9 C 8,0 C 0,0 km/h (0 Bft) 0,00 %
23.09.2015 21:26 8,0 C 99 % 1017,5 hPa 0,0 l/m 0,0 km/h (0 Bft) SW 220 0 min 0,000 mm 0,0 UV-I 0 W/m 7,9 C 8,0 C 0,0 km/h (0 Bft) 0,00 %
23.09.2015 21:31 8,0 C 99 % 1017,5 hPa 0,0 l/m 0,4 km/h (0 Bft) S 175 0 min 0,000 mm 0,0 UV-I 0 W/m 7,9 C 8,0 C 4,0 km/h (1 Bft) 0,00 %
23.09.2015 21:36 8,0 C 99 % 1017,8 hPa 0,0 l/m 0,7 km/h (0 Bft) S 180 0 min 0,000 mm 0,0 UV-I 0 W/m 7,9 C 8,0 C 4,0 km/h (1 Bft) 0,00 %
23.09.2015 21:41 8,0 C 99 % 1017,8 hPa 0,0 l/m 0,0 km/h (0 Bft) O 83 0 min 0,000 mm 0,0 UV-I 0 W/m 7,9 C 8,0 C 0,0 km/h (0 Bft) 0,00 %
23.09.2015 21:46 8,0 C 99 % 1017,7 hPa 0,0 l/m 0,0 km/h (0 Bft) O-NO 63 0 min 0,000 mm 0,0 UV-I 0 W/m 7,9 C 8,0 C 0,0 km/h (0 Bft) 0,00 %
23.09.2015 21:51 7,9 C 99 % 1017,8 hPa 0,0 l/m 4,0 km/h (1 Bft) S-SW 203 0 min 0,000 mm 0,0 UV-I 0 W/m 7,8 C 7,9 C 4,0 km/h (1 Bft) 0,00 %
23.09.2015 21:56 7,9 C 99 % 1017,9 hPa 0,0 l/m 0,7 km/h (0 Bft) S-SW 206 0 min 0,000 mm 0,0 UV-I 0 W/m 7,8 C 7,9 C 4,0 km/h (1 Bft) 0,00 %
23.09.2015 22:01 7,9 C 99 % 1018,3 hPa 0,0 l/m 0,0 km/h (0 Bft) O-SO 111 0 min 0,000 mm 0,0 UV-I 0 W/m 7,8 C 7,9 C 0,0 km/h (0 Bft) 0,00 %
23.09.2015 22:06 7,9 C 99 % 1017,5 hPa 0,0 l/m 0,0 km/h (0 Bft) SO 136 0 min 0,000 mm 0,0 UV-I 0 W/m 7,8 C 7,9 C 0,0 km/h (0 Bft) 0,00 %
23.09.2015 22:11 7,9 C 99 % 1017,7 hPa 0,0 l/m 0,0 km/h (0 Bft) S 180 0 min 0,000 mm 0,0 UV-I 0 W/m 7,8 C 7,9 C 0,0 km/h (0 Bft) 0,00 %
23.09.2015 22:16 7,9 C 99 % 1017,5 hPa 0,0 l/m 0,0 km/h (0 Bft) W-SW 254 0 min 0,000 mm 0,0 UV-I 0 W/m 7,8 C 7,9 C 0,0 km/h (0 Bft) 0,00 %
23.09.2015 22:21 7,9 C 99 % 1017,5 hPa 0,0 l/m 0,0 km/h (0 Bft) S-SW 209 0 min 0,000 mm 0,0 UV-I 0 W/m 7,8 C 7,9 C 0,0 km/h (0 Bft) 0,00 %
23.09.2015 22:26 8,0 C 99 % 1017,5 hPa 0,0 l/m 1,4 km/h (1 Bft) SW 229 0 min 0,000 mm 0,0 UV-I 0 W/m 7,9 C 8,0 C 4,0 km/h (1 Bft) 0,00 %
23.09.2015 22:31 8,3 C 99 % 1017,5 hPa 0,0 l/m 0,0 km/h (0 Bft) SW 230 0 min 0,000 mm 0,0 UV-I 0 W/m 8,2 C 8,3 C 0,0 km/h (0 Bft) 0,00 %
23.09.2015 22:36 8,4 C 99 % 1017,4 hPa 0,0 l/m 0,0 km/h (0 Bft) NO 52 0 min 0,000 mm 0,0 UV-I 0 W/m 8,3 C 8,4 C 0,0 km/h (0 Bft) 0,00 %
23.09.2015 22:41 8,4 C 99 % 1017,6 hPa 0,0 l/m 0,0 km/h (0 Bft) SW 214 0 min 0,000 mm 0,0 UV-I 0 W/m 8,3 C 8,4 C 0,0 km/h (0 Bft) 0,00 %
23.09.2015 22:46 8,3 C 99 % 1017,9 hPa 0,0 l/m 0,0 km/h (0 Bft) O-NO 77 0 min 0,000 mm 0,0 UV-I 0 W/m 8,2 C 8,3 C 0,0 km/h (0 Bft) 0,00 %
23.09.2015 22:51 8,3 C 99 % 1017,9 hPa 0,0 l/m 0,0 km/h (0 Bft) O-SO 117 0 min 0,000 mm 0,0 UV-I 0 W/m 8,2 C 8,3 C 0,0 km/h (0 Bft) 0,00 %
23.09.2015 22:56 8,3 C 99 % 1018,1 hPa 0,0 l/m 0,0 km/h (0 Bft) S 181 0 min 0,000 mm 0,0 UV-I 0 W/m 8,2 C 8,3 C 0,0 km/h (0 Bft) 0,00 %
23.09.2015 23:01 8,4 C 99 % 1018,0 hPa 0,0 l/m 0,0 km/h (0 Bft) O 96 0 min 0,000 mm 0,0 UV-I 0 W/m 8,3 C 8,4 C 0,0 km/h (0 Bft) 0,00 %
23.09.2015 23:06 8,4 C 99 % 1018,0 hPa 0,0 l/m 0,0 km/h (0 Bft) S 191 0 min 0,000 mm 0,0 UV-I 0 W/m 8,3 C 8,4 C 0,0 km/h (0 Bft) 0,00 %
23.09.2015 23:11 8,4 C 99 % 1017,9 hPa 0,0 l/m 0,0 km/h (0 Bft) O 85 0 min 0,000 mm 0,0 UV-I 0 W/m 8,3 C 8,4 C 0,0 km/h (0 Bft) 0,00 %
23.09.2015 23:16 8,5 C 99 % 1018,2 hPa 0,0 l/m 0,0 km/h (0 Bft) SW 230 0 min 0,000 mm 0,0 UV-I 0 W/m 8,4 C 8,5 C 0,0 km/h (0 Bft) 0,00 %
23.09.2015 23:21 8,5 C 99 % 1017,8 hPa 0,0 l/m 0,0 km/h (0 Bft) SW 229 0 min 0,000 mm 0,0 UV-I 0 W/m 8,4 C 8,5 C 0,0 km/h (0 Bft) 0,00 %
23.09.2015 23:26 8,5 C 99 % 1018,1 hPa 0,0 l/m 0,0 km/h (0 Bft) O-SO 110 0 min 0,000 mm 0,0 UV-I 0 W/m 8,4 C 8,5 C 0,0 km/h (0 Bft) 0,00 %
23.09.2015 23:31 8,5 C 99 % 1017,8 hPa 0,0 l/m 0,0 km/h (0 Bft) O 88 0 min 0,000 mm 0,0 UV-I 0 W/m 8,4 C 8,5 C 0,0 km/h (0 Bft) 0,00 %
23.09.2015 23:36 8,5 C 99 % 1017,8 hPa 0,0 l/m 0,0 km/h (0 Bft) S 178 0 min 0,000 mm 0,0 UV-I 0 W/m 8,4 C 8,5 C 0,0 km/h (0 Bft) 0,00 %
23.09.2015 23:41 8,5 C 99 % 1017,7 hPa 0,0 l/m 0,0 km/h (0 Bft) O-SO 117 0 min 0,000 mm 0,0 UV-I 0 W/m 8,4 C 8,5 C 0,0 km/h (0 Bft) 0,00 %
23.09.2015 23:46 8,6 C 99 % 1017,7 hPa 0,0 l/m 0,0 km/h (0 Bft) NO 53 0 min 0,000 mm 0,0 UV-I 0 W/m 8,5 C 8,6 C 0,0 km/h (0 Bft) 0,00 %
23.09.2015 23:51 8,6 C 99 % 1018,0 hPa 0,0 l/m 0,4 km/h (0 Bft) S 174 0 min 0,000 mm 0,0 UV-I 0 W/m 8,5 C 8,6 C 4,0 km/h (1 Bft) 0,00 %
23.09.2015 23:56 8,6 C 99 % 1017,9 hPa 0,0 l/m 0,4 km/h (0 Bft) S-SW 199 0 min 0,000 mm 0,0 UV-I 0 W/m 8,5 C 8,6 C 4,0 km/h (1 Bft) 0,00 %
_ Min-Zeit 21:51 01:00 03:35 - 00:00 - - - - - - 09:01 07:35 00:00 00:00
Minimum _ 7,9 C 73 % 1004,8 hPa - 0,0 km/h (0 Bft) - - - - - - 7,5 C 5,5 C 0,0 km/h (0 Bft) 0,00 %
_ Max-Zeit 00:55 20:01 22:01 13:51 06:30 - - 00:00 00:00 10:01 12:06 00:00 00:55 06:30 00:00
Maximum _ 13,9 C 99 % 1018,3 hPa 0,6 l/m 14,8 km/h
W-NW (3 Bft)
- - 0 min 0,000 mm 1,0 UV-I 304 W/m 9,8 C 13,9 C 24,1 km/h
W-NW (4 Bft)
0,00 %
Durchschnitt _ 10,7 C 88 % 1011,2 hPa #6,3 l/m 2,1 km/h (1 Bft) S - #0 min. #0,000 mm 1,0 UV-I 114 W/m 8,6 C 10,5 C 4,1 km/h (1 Bft) 0,00 %